EW9826 Weather Reports


time (UTC)temp
F
wind
direction
speed
knots
gust
knots
rain 1hr
in
rain 24hr
in
rain mn
in
humidity
%
barometer
mb
20260831232051 61 301 1.7 2.6 0.00 0.33 0.00 93 1016.3
20260831225051 61 304 0.0 1.7 0.01 0.33 0.00 92 1016.2
20260831224551 61 304 0.9 2.6 0.01 0.33 0.00 92 1016.1
20260831223551 61 304 1.7 2.6 0.03 0.33 0.00 92 1015.9
20260831223051 61 304 0.0 0.0 0.04 0.33 0.00 91 1015.9
20260831222551 61 304 0.0 0.9 0.09 0.33 0.00 91 1015.8
20260831222052 61 304 0.0 1.7 0.14 0.33 0.00 91 1015.8
20260831221550 62 304 0.0 0.9 0.14 0.33 0.00 91 1015.8
20260831221053 62 304 0.9 2.6 0.14 0.33 0.00 90 1015.8
20260831220051 62 304 0.9 1.7 0.14 0.33 0.00 90 1015.8
20260831214551 63 304 0.0 1.7 0.13 0.32 0.32 88 1015.8
20260831213051 64 293 3.5 7.8 0.11 0.30 0.30 86 1016.2
20260831212551 65 315 9.6 19.1 0.09 0.28 0.28 84 1016.3
20260831212051 66 248 1.7 2.6 0.00 0.19 0.19 84 1015.6
20260831211551 66 248 1.7 2.6 0.00 0.19 0.19 83 1015.3
20260831211051 66 248 0.9 2.6 0.00 0.19 0.19 83 1015.3
20260831205550 66 248 0.9 2.6 0.00 0.19 0.19 81 1015.3
20260831204051 66 248 0.0 1.7 0.00 0.23 0.19 80 1015.2
20260831203551 66 248 0.9 2.6 0.00 0.23 0.19 79 1015.2
20260831203052 67 248 0.9 2.6 0.00 0.24 0.19 79 1015.2
20260831202051 67 249 2.6 4.3 0.00 0.33 0.19 78 1015.1
20260831201551 67 250 1.7 2.6 0.00 0.44 0.19 78 1015.0
20260831201052 67 250 0.9 5.2 0.00 0.45 0.19 78 1014.9
20260831200051 67 250 1.7 4.3 0.00 0.45 0.19 78 1014.8
20260831195551 68 250 2.6 7.0 0.00 0.45 0.19 78 1014.8
20260831195051 67 250 2.6 7.0 0.00 0.45 0.19 78 1014.8
20260831194550 67 250 2.6 5.2 0.00 0.45 0.19 78 1014.8
20260831194051 67 246 2.6 7.0 0.00 0.45 0.19 78 1014.8
20260831193550 67 247 2.6 5.2 0.00 0.45 0.19 78 1014.8
20260831192051 67 247 1.7 6.1 0.00 0.45 0.19 77 1014.6
20260831191550 67 236 2.6 8.7 0.00 0.45 0.19 77 1014.6
20260831191051 67 261 2.6 7.0 0.00 0.45 0.19 77 1014.4
20260831190050 68 249 2.6 6.1 0.00 0.45 0.19 76 1014.3
20260831185550 68 264 4.3 6.1 0.00 0.45 0.19 76 1014.3
20260831184051 68 259 3.5 7.8 0.00 0.45 0.19 76 1014.2
20260831183550 68 297 2.6 8.7 0.00 0.45 0.19 75 1014.0
20260831182550 68 243 2.6 11.3 0.00 0.45 0.19 75 1013.8
20260831182051 68 256 3.5 13.0 0.00 0.45 0.19 74 1013.8
20260831175051 68 253 5.2 11.3 0.00 0.45 0.19 74 1013.4
20260831174550 68 270 5.2 11.3 0.00 0.45 0.19 74 1013.3
20260831171551 69 287 4.3 13.0 0.00 0.45 0.19 72 1013.0
20260831171050 69 273 6.1 15.6 0.00 0.45 0.19 72 1012.8
20260831170050 69 261 5.2 11.3 0.00 0.45 0.19 73 1012.7
20260831165550 69 273 7.0 13.0 0.00 0.45 0.19 72 1012.7
20260831165050 69 271 6.1 11.3 0.00 0.45 0.19 72 1012.7
20260831164550 69 266 3.5 11.3 0.00 0.45 0.19 72 1012.7
20260831162550 68 281 7.8 13.0 0.00 0.45 0.19 73 1012.5
20260831162050 68 288 8.7 14.8 0.00 0.45 0.19 74 1012.5
20260831160050 68 293 6.1 12.2 0.00 0.45 0.19 75 1012.2
20260831155549 68 288 4.3 10.4 0.00 0.45 0.19 75 1012.2
20260831151550 68 288 7.0 17.4 0.00 0.45 0.19 73 1011.9
20260831151051 68 277 6.1 19.1 0.00 0.45 0.19 73 1011.8
20260831150050 68 246 8.7 17.4 0.00 0.45 0.19 72 1011.7
20260831145550 68 290 6.1 17.4 0.00 0.45 0.19 72 1011.7
20260831143051 67 297 5.2 10.4 0.00 0.45 0.19 77 1011.3
20260831142550 66 269 4.3 8.7 0.00 0.45 0.19 78 1011.2
20260831142050 66 289 6.1 13.9 0.00 0.45 0.19 78 1011.2
20260831141549 66 277 5.2 11.3 0.00 0.45 0.19 78 1011.1
20260831141051 65 294 5.2 12.2 0.00 0.45 0.19 79 1011.1
20260831140050 65 250 6.1 12.2 0.00 0.45 0.19 79 1010.8
20260831135550 66 257 6.1 13.0 0.00 0.45 0.19 78 1010.8
20260831134051 66 278 8.7 17.4 0.00 0.45 0.19 75 1010.6
20260831132550 67 271 7.0 13.9 0.00 0.45 0.19 73 1010.3
20260831132051 67 279 7.0 15.6 0.00 0.45 0.19 73 1010.3
20260831131549 67 279 7.0 20.0 0.00 0.45 0.19 73 1010.2
20260831131050 67 280 8.7 20.0 0.00 0.45 0.19 73 1010.1
20260831124550 67 248 6.1 14.8 0.00 0.45 0.19 73 1009.8
20260831124051 67 261 5.2 19.1 0.00 0.45 0.19 75 1009.7
20260831122051 67 259 8.7 19.1 0.05 0.45 0.19 75 1009.5
20260831121549 67 269 7.0 13.0 0.06 0.45 0.19 80 1009.4
20260831121051 66 252 6.1 13.0 0.07 0.45 0.19 83 1009.2
20260831120049 64 270 6.1 12.2 0.08 0.45 0.19 88 1009.1
20260831115549 63 255 6.1 14.8 0.08 0.45 0.19 90 1009.1
20260831115050 63 229 5.2 8.7 0.08 0.45 0.19 90 1009.1
20260831114550 62 233 3.5 7.8 0.08 0.45 0.19 90 1009.1
20260831114050 62 246 4.3 7.8 0.09 0.45 0.19 90 1009.1
20260831112050 62 252 8.7 13.9 0.04 0.40 0.14 88 1009.1
20260831111550 62 247 6.1 14.8 0.03 0.39 0.13 87 1009.0
20260831111050 62 254 7.0 14.8 0.04 0.38 0.12 87 1009.0
20260831110050 63 238 8.7 17.4 0.03 0.37 0.11 85 1008.9
20260831105549 63 263 5.2 14.8 0.03 0.37 0.11 84 1008.8
20260831105050 63 255 7.8 14.8 0.03 0.37 0.11 83 1008.7
20260831104549 64 259 6.1 12.2 0.03 0.37 0.11 83 1008.6
20260831104050 64 231 4.3 12.2 0.02 0.36 0.10 86 1008.5
20260831103550 64 279 6.1 12.2 0.02 0.36 0.10 87 1008.4
20260831102050 63 252 5.2 13.0 0.02 0.36 0.10 84 1008.1
20260831101549 63 253 7.0 13.0 0.02 0.35 0.09 82 1008.2
20260831101050 64 298 6.1 17.4 0.00 0.34 0.08 79 1008.1
20260831095550 67 227 6.1 14.8 0.00 0.36 0.08 77 1007.9
20260831095050 66 229 6.1 18.2 0.00 0.39 0.08 78 1007.7
20260831093549 67 224 10.4 19.1 0.00 0.39 0.08 75 1007.6
20260831091050 66 222 5.2 18.2 0.00 0.39 0.08 77 1007.4
20260831090049 66 221 6.1 17.4 0.00 0.40 0.08 78 1007.2
20260831085549 66 223 10.4 18.2 0.00 0.40 0.08 79 1007.2
20260831085050 65 204 7.8 19.1 0.00 0.40 0.08 80 1007.2
20260831084549 65 223 6.1 17.4 0.01 0.40 0.08 81 1007.3
20260831081551 65 198 7.8 14.8 0.02 0.42 0.08 83 1007.0
20260831081050 65 248 8.7 18.2 0.02 0.42 0.08 84 1007.0
20260831080049 64 234 8.7 18.2 0.02 0.45 0.08 86 1006.7
20260831075549 64 241 11.3 20.9 0.02 0.46 0.08 86 1006.8
20260831074549 64 219 8.7 13.9 0.01 0.46 0.07 86 1006.6
20260831073050 64 207 7.8 14.8 0.01 0.45 0.06 86 1006.5
20260831072549 64 258 7.0 17.4 0.01 0.45 0.06 87 1006.5
20260831072050 63 216 6.1 15.6 0.01 0.45 0.06 88 1006.6
20260831071549 63 196 7.8 14.8 0.01 0.45 0.06 89 1006.7
20260831071050 63 208 6.1 15.6 0.01 0.45 0.06 90 1006.7
20260831063549 63 207 2.6 12.2 0.03 0.46 0.06 90 1007.0
20260831063049 63 210 3.5 8.7 0.04 0.46 0.06 91 1007.2
20260831061049 62 207 5.2 10.4 0.05 0.46 0.06 91 1007.5
20260831060049 63 185 6.1 13.0 0.05 0.47 0.06 91 1007.6
20260831055550 63 237 5.2 11.3 0.05 0.47 0.06 91 1007.5
20260831054049 63 214 6.1 13.0 0.03 0.47 0.04 89 1007.0
20260831053549 64 238 6.1 13.0 0.02 0.46 0.02 89 1007.0
20260831043549 63 203 3.5 8.7 0.00 0.46 0.01 87 1007.1
20260831043050 63 213 5.2 11.3 0.00 0.46 0.01 88 1007.2
20260831040049 64 230 2.6 8.7 0.00 0.46 0.01 88 1007.0
20260831035549 64 203 4.3 10.4 0.00 0.46 0.01 88 1007.0
20260831035049 64 229 4.3 8.7 0.00 0.46 0.01 88 1007.0
20260831034550 64 212 4.3 10.4 0.00 0.46 0.01 88 1007.0
20260831033049 64 207 3.5 7.0 0.00 0.46 0.01 88 1007.1
20260831032548 64 215 2.6 7.8 0.00 0.47 0.01 88 1007.1
20260831032049 64 211 4.3 8.7 0.00 0.47 0.01 88 1007.3
20260831031548 64 222 3.5 8.7 0.00 0.47 0.01 88 1007.3
20260831031049 64 248 4.3 12.2 0.00 0.47 0.01 88 1007.5
20260831030048 64 229 5.2 8.7 0.00 0.47 0.01 88 1007.5
20260831025549 64 182 5.2 7.8 0.00 0.47 0.01 88 1007.6
20260831025050 64 238 3.5 7.8 0.00 0.47 0.01 89 1007.6
20260831024549 64 201 3.5 7.8 0.00 0.47 0.01 89 1007.6
20260831024049 63 197 4.3 7.0 0.00 0.47 0.01 89 1007.6
20260831023549 63 224 2.6 7.8 0.00 0.47 0.01 90 1007.7
20260831023049 63 198 2.6 10.4 0.00 0.47 0.01 90 1007.6
20260831022548 63 206 4.3 7.0 0.00 0.47 0.01 91 1007.6
20260831022049 63 207 2.6 7.0 0.00 0.47 0.01 91 1007.6
20260831021548 63 207 2.6 6.1 0.00 0.47 0.01 92 1007.6
20260831021051 63 208 3.5 6.1 0.00 0.47 0.01 92 1007.6
20260831015049 63 206 2.6 5.2 0.00 0.47 0.01 92 1007.6
20260831014548 63 207 2.6 5.2 0.00 0.47 0.01 92 1007.6
20260831014050 63 207 1.7 4.3 0.00 0.47 0.01 92 1007.6
20260831013548 63 207 1.7 2.6 0.00 0.47 0.01 92 1007.6
20260831013049 63 207 0.9 2.6 0.00 0.47 0.01 92 1007.5
20260831012548 63 207 0.9 2.6 0.00 0.47 0.01 92 1007.6
20260831012049 63 207 2.6 6.1 0.00 0.47 0.01 92 1007.9
20260831011549 63 206 2.6 5.2 0.00 0.47 0.01 92 1008.0
20260831011051 63 206 2.6 6.1 0.00 0.47 0.01 92 1008.0
20260831010049 63 205 1.7 4.3 0.00 0.47 0.01 92 1008.0
20260831005548 63 205 1.7 6.1 0.00 0.47 0.01 92 1007.9
20260831005049 63 205 1.7 5.2 0.00 0.47 0.01 91 1007.9
20260830235548 63 213 0.9 2.6 0.01 0.64 0.01 93 1008.1
20260830235048 64 213 1.7 5.2 0.01 0.66 0.01 93 1008.2
20260830233549 64 212 4.3 6.1 0.01 0.69 0.01 93 1008.5
20260830233048 64 204 2.6 6.1 0.01 0.69 0.01 93 1008.6